Location: La Bastide
(43.1661°N, 1.2755°E)
Time: 03:04:45
(UTC+00:00)

Tiangong - Pass Details

Date: 17 February 2026
Orbit: 382 x 391 km, 41.5° (Epoch: 6 March)

Event Time Altitude Azimuth Distance (km) Brightness Sun altitude
Rises 19:45:33 0° 275° (W) 2,254 3.1 -25.6°
Reaches altitude 10° 19:47:44 10° 265° (W) 1,397 1.7 -26.0°
Enters shadow 19:48:57 19° 252° (WSW) 974 0.5 -26.2°
